GLOBALSTAR M093 [+]

Last updated on July 6, 2021, 3:36 p.m. UTC

1 39073U 13005B   21186.84014571 -.00000100  00000-0  18870-4 0  9999
2 39073  51.9831 340.7064 0000588  74.7484 285.3448 12.62265987388685
UTC
Height (km)
Latitude
Longitude
Inclination
Orbital Period
UTC large
Height (km)
Speed (km/s)
/
Latitude / Longitude
Inclination (degrees)
Orbital Period (minutes)
Azimuth
Elevation
Range (km)
Doppler Factor
iOS Compass Heading
iOS Angle